Satellite-Ground Cal/Val Region Overpasses Predictions

Prediction of Satellite NPP Overpassing Cal/Val Region: PacNW

Region Location: (Latitude: 10.00, Longitude: 139.50) to (Latitude: 22.70, Longitude: 165.60).

Table of predicted overpasses for the next 14.0 days since TLE Epoch: 4/27/2019
Interval Starting Time Starting Location Ending Time Ending Location
1 04/27/2019 15:29:57 ( 22.65, 152.38) 04/27/2019 15:33:32 ( 10.03, 149.38)
2 04/28/2019 02:39:02 ( 10.01, 159.91) 04/28/2019 02:42:38 ( 22.69, 156.89)
3 04/28/2019 15:10:56 ( 22.66, 157.14) 04/28/2019 15:14:31 ( 10.04, 154.14)
4 04/29/2019 02:20:02 ( 10.06, 164.66) 04/29/2019 02:23:37 ( 22.68, 161.65)
5 04/29/2019 14:51:54 ( 22.68, 161.90) 04/29/2019 14:55:29 ( 10.06, 158.90)
6 04/30/2019 03:42:30 ( 10.05, 144.04) 04/30/2019 03:46:05 ( 22.67, 141.03)
7 04/30/2019 14:34:07 ( 18.35, 165.59) 04/30/2019 14:36:29 ( 10.01, 163.64)
8 04/30/2019 16:14:23 ( 22.69, 141.28) 04/30/2019 16:16:28 ( 15.35, 139.50)
9 05/01/2019 03:23:29 ( 10.03, 148.80) 05/01/2019 03:27:04 ( 22.66, 145.79)
10 05/01/2019 15:55:22 ( 22.64, 146.03) 05/01/2019 15:58:57 ( 10.02, 143.02)
11 05/02/2019 03:04:27 ( 10.02, 153.56) 05/02/2019 03:08:02 ( 22.64, 150.55)
12 05/02/2019 15:36:21 ( 22.66, 150.78) 05/02/2019 15:39:56 ( 10.04, 147.78)
13 05/03/2019 02:45:26 ( 10.01, 158.31) 05/03/2019 02:49:02 ( 22.69, 155.30)
14 05/03/2019 15:17:19 ( 22.67, 155.54) 05/03/2019 15:20:54 ( 10.05, 152.54)
15 05/04/2019 02:26:25 ( 10.05, 163.06) 05/04/2019 02:30:00 ( 22.68, 160.05)
16 05/04/2019 14:58:18 ( 22.68, 160.30) 05/04/2019 15:01:54 ( 10.00, 157.29)
17 05/05/2019 02:10:05 ( 19.50, 165.60) 05/05/2019 02:10:59 ( 22.67, 164.81)
18 05/05/2019 03:48:54 ( 10.05, 142.44) 05/05/2019 03:52:24 ( 22.38, 139.51)
19 05/05/2019 14:39:17 ( 22.69, 165.06) 05/05/2019 14:42:53 ( 10.02, 162.04)
20 05/05/2019 16:20:47 ( 22.69, 139.69) 05/05/2019 16:20:59 ( 21.99, 139.51)
21 05/06/2019 03:29:52 ( 10.03, 147.20) 05/06/2019 03:33:27 ( 22.66, 144.20)
22 05/06/2019 16:01:46 ( 22.64, 144.43) 05/06/2019 16:05:21 ( 10.03, 141.43)
23 05/07/2019 03:10:51 ( 10.02, 151.96) 05/07/2019 03:14:26 ( 22.65, 148.95)
24 05/07/2019 15:42:45 ( 22.66, 149.19) 05/07/2019 15:46:20 ( 10.04, 146.19)
25 05/08/2019 02:51:49 ( 10.01, 156.72) 05/08/2019 02:55:25 ( 22.69, 153.70)
26 05/08/2019 15:23:43 ( 22.67, 153.95) 05/08/2019 15:27:18 ( 10.05, 150.94)
27 05/09/2019 02:32:48 ( 10.00, 161.47) 05/09/2019 02:36:24 ( 22.68, 158.46)
28 05/09/2019 15:04:42 ( 22.68, 158.70) 05/09/2019 15:08:18 ( 10.00, 155.69)
29 05/10/2019 02:14:33 ( 12.75, 165.60) 05/10/2019 02:17:22 ( 22.67, 163.21)
30 05/10/2019 03:55:17 ( 10.05, 140.84) 05/10/2019 03:56:55 ( 15.81, 139.51)
31 05/10/2019 14:45:40 ( 22.69, 163.46) 05/10/2019 14:49:16 ( 10.01, 160.45)


NCC Satellite Cal/Val Overpasses Prediction Service
